[[{"header":{"parameterUnit":"m.s-1","parameterCategory":1,"la1":30.2991,"la2":30.254,"lo1":-89.0895,"lo2":-89.0444,"dy":0.0017,"dx":0.0017,"nx":28,"ny":28,"refTime":"2025-09-07T03:00:00:Z","depth":0,"parameterNumber":2,"parameterNumberName":"U-component_of_WINDS"},"data":[0,0,0,0,0,0,0,0,0,0,0,0,0,0,0,0,0,0,0,0,0,0,0,0,0,0,0,0,0,0,0,0,0,0,0,0,0,0,0,0,0,0,0,0,0,0,0,0,0,0,0,0,0,0,0,0,0,0,-0.8732,-0.8732,0,-0.8677,-0.8676,-0.8675,-0.8647,-0.8647,-0.8647,-0.8647,-0.8587,-0.8586,-0.8584,0,0,0,0,0,0,0,0,0,0,0,0,0,-0.8811,-0.881,-0.8732,-0.8732,-0.8731,-0.8677,-0.8676,-0.8675,-0.8647,-0.8647,-0.8647,-0.8647,-0.8588,-0.8586,-0.8584,0,0,0,0,0,0,0,0,0,0,0,0,0,-0.8768,-0.8809,-0.8733,-0.871,-0.8708,-0.8677,-0.8676,-0.8675,-0.8647,-0.8647,-0.8647,-0.8647,-0.8588,-0.8586,-0.8584,-0.857,0,0,-0.8577,-0.8576,0,0,0,0,0,0,0,0,-0.8771,-0.8765,-0.8714,-0.8712,-0.8709,-0.8669,-0.8682,-0.864,-0.8647,-0.867,-0.8647,-0.8646,-0.8614,-0.861,-0.8599,-0.8567,-0.8565,-0.8576,-0.8575,-0.8574,-0.8573,0,0,0,0,0,0,0,-0.8774,-0.8768,-0.871,-0.8714,-0.871,-0.8702,-0.8696,-0.8674,-0.8643,-0.8668,-0.8666,-0.8659,-0.8613,-0.8602,-0.8598,-0.8564,-0.8577,-0.8574,-0.8573,-0.8572,-0.8516,-0.8515,0,0,0,0,0,0,-0.8781,-0.877,-0.8712,-0.8709,-0.874,-0.8701,-0.8694,-0.8682,-0.8643,-0.8637,-0.866,-0.8658,-0.8606,-0.86,-0.8595,-0.8575,-0.8574,-0.8572,-0.8571,-0.8516,-0.8516,-0.8515,0,0,0,0,0,0,-0.8783,-0.8776,-0.8714,-0.8739,-0.873,-0.8699,-0.8686,-0.868,-0.8669,-0.8637,-0.8631,-0.8654,-0.8605,-0.8599,-0.8576,-0.8573,-0.8571,-0.8569,-0.8516,-0.8516,-0.8515,-0.8537,0,0,0,0,0,0,-0.8785,-0.8777,-0.8772,-0.8739,-0.8729,-0.8697,-0.8686,-0.8679,-0.8666,-0.8663,-0.863,-0.8624,-0.8605,-0.858,-0.8574,-0.857,-0.8567,-0.8516,-0.8516,-0.8516,-0.8536,-0.8537,-0.8538,0,0,0,0,0,-0.8788,-0.878,-0.8772,-0.8765,-0.8723,-0.8697,-0.8691,-0.867,-0.8666,-0.866,-0.8639,-0.8626,-0.8575,-0.8578,-0.8571,-0.8566,-0.8516,-0.8516,-0.8516,-0.8535,-0.8537,-0.8538,0,0,0,0,0,0,-0.8813,-0.8775,-0.8766,-0.8748,-0.8726,-0.8692,-0.8685,-0.8672,-0.865,-0.8649,-0.8622,-0.8615,-0.8595,-0.8578,-0.8582,-0.855,-0.8544,-0.8542,-0.8561,-0.8562,-0.8563,-0.8568,-0.8565,0,0,0,0,0,-0.8817,-0.88,-0.8767,-0.8754,-0.8744,-0.8716,-0.8704,-0.8689,-0.8665,-0.8656,-0.8633,-0.8609,-0.8588,-0.8574,-0.8553,-0.8533,-0.8525,-0.8526,-0.8528,-0.8529,-0.8527,-0.8514,-0.8514,-0.8515,-0.8515,-0.8515,0,0,-0.8824,-0.8801,-0.8792,-0.8759,-0.874,-0.8722,-0.8709,-0.869,-0.8676,-0.8653,-0.863,-0.8612,-0.8584,-0.8563,-0.8552,-0.8548,-0.8525,-0.8528,-0.8529,-0.8527,-0.8514,-0.8514,-0.8514,-0.8515,-0.8515,-0.8515,0,0,-0.8827,-0.8809,-0.8795,-0.8776,-0.8748,-0.873,-0.8727,-0.8695,-0.8682,-0.8659,-0.864,-0.8623,-0.8587,-0.8567,-0.8552,-0.8546,-0.8533,-0.854,-0.8545,-0.8533,-0.8533,-0.8532,-0.8529,-0.8528,-0.8539,-0.8539,-0.8539,0,-0.8839,-0.8812,-0.8789,-0.8772,-0.8757,-0.8735,-0.872,-0.8703,-0.8669,-0.8659,-0.8655,-0.8608,-0.8588,-0.8561,-0.8559,-0.8548,-0.8542,-0.8543,-0.8535,-0.8534,-0.8534,-0.853,-0.8529,-0.854,-0.854,-0.854,-0.854,0,-0.8827,-0.8809,-0.8801,-0.8769,-0.8753,-0.8737,-0.8711,-0.8697,-0.8683,-0.8665,-0.864,-0.8615,-0.8587,-0.858,-0.8566,-0.855,-0.8548,-0.854,-0.8533,-0.8535,-0.8531,-0.853,-0.8541,-0.8541,-0.8541,-0.854,0,0,-0.8846,-0.8801,-0.8798,-0.8783,-0.875,-0.8734,-0.8716,-0.8689,-0.8678,-0.8655,-0.8638,-0.8607,-0.8599,-0.8582,-0.8566,-0.8555,-0.855,-0.8547,-0.8546,-0.8548,-0.8529,-0.8535,-0.8534,-0.8541,-0.854,-0.854,-0.8531,0,-0.8843,-0.8811,-0.879,-0.8765,-0.8747,-0.8725,-0.8709,-0.8686,-0.8668,-0.8649,-0.8628,-0.8606,-0.8598,-0.8587,-0.8575,-0.8553,-0.8546,-0.8553,-0.8524,-0.8523,-0.8531,-0.8532,-0.8539,-0.8531,-0.8529,-0.8529,-0.8529,0,-0.8837,-0.8815,-0.8789,-0.8756,-0.8748,-0.8734,-0.8707,-0.8689,-0.8662,-0.8649,-0.863,-0.8613,-0.8591,-0.8587,-0.8556,-0.8562,-0.8548,-0.8535,-0.8534,-0.853,-0.8526,-0.8527,-0.8528,-0.8527,-0.8527,-0.8527,-0.8527,0,-0.8851,-0.8815,-0.8794,-0.8782,-0.8744,-0.8734,-0.8718,-0.8691,-0.8676,-0.8651,-0.8641,-0.8615,-0.86,-0.8579,-0.8555,-0.8554,-0.8526,-0.852,-0.8513,-0.8514,-0.8508,-0.8509,-0.8507,-0.8501,-0.8501,-0.8501,-0.8501,0,-0.8851,-0.8836,-0.88,-0.8788,-0.8769,-0.8744,-0.8726,-0.8707,-0.8683,-0.8665,-0.8644,-0.8628,-0.8597,-0.8576,-0.8557,-0.8533,-0.8527,-0.8515,-0.851,-0.8517,-0.8518,-0.8507,-0.8507,-0.8501,-0.8501,-0.8501,-0.8501,0,-0.8864,-0.884,-0.8816,-0.8782,-0.8772,-0.876,-0.873,-0.8716,-0.8696,-0.8674,-0.8667,-0.8636,-0.861,-0.8584,-0.8549,-0.8536,-0.8512,-0.8506,-0.8522,-0.8519,-0.8514,-0.8514,-0.8504,-0.8501,-0.8498,-0.8498,-0.8498,0,-0.8865,-0.8853,-0.8817,-0.8804,-0.8788,-0.8767,-0.8751,-0.8725,-0.871,-0.8677,-0.8666,-0.8639,-0.8616,-0.8576,-0.8549,-0.8522,-0.8514,-0.8512,-0.851,-0.8516,-0.8512,-0.8513,-0.8511,-0.8513,-0.8513,-0.8513,-0.8513,0,-0.8869,-0.8858,-0.8836,-0.881,-0.8792,-0.877,-0.8747,-0.8737,-0.8706,-0.8689,-0.8663,-0.8645,-0.8609,-0.8582,-0.8551,-0.8533,-0.8517,-0.8514,-0.8511,-0.8518,-0.8527,-0.852,-0.8524,-0.8515,-0.8515,-0.8514,-0.8514,-0.8514,-0.8875,-0.8863,-0.8836,-0.8812,-0.8792,-0.8771,-0.8755,-0.8734,-0.8712,-0.8681,-0.8666,-0.864,-0.8611,-0.8568,-0.855,-0.8527,-0.8523,-0.8519,-0.8518,-0.8517,-0.8518,-0.8531,-0.8522,-0.8522,-0.8522,-0.8522,-0.8522,0,-0.8877,-0.8859,-0.8837,-0.8806,-0.8787,-0.8775,-0.8748,-0.8733,-0.871,-0.8685,-0.8662,-0.8631,-0.8604,-0.8575,-0.8546,-0.8533,-0.8525,-0.8526,-0.8526,-0.8522,-0.8524,-0.8529,-0.8533,-0.8533,-0.8533,-0.8533,-0.8533,-0.8533,-0.8876,-0.8854,-0.8839,-0.8806,-0.8786,-0.8761,-0.8746,-0.8726,-0.8706,-0.8672,-0.865,-0.8631,-0.8604,-0.8572,-0.8546,-0.8538,-0.8528,-0.8531,-0.8521,-0.8523,-0.8522,-0.8521,-0.8526,-0.8529,-0.8529,-0.852,-0.852,-0.852]},{"header":{"parameterUnit":"m.s-1","parameterCategory":1,"la1":30.2991,"la2":30.254,"lo1":-89.0895,"lo2":-89.0444,"dy":0.0017,"dx":0.0017,"nx":28,"ny":28,"refTime":"2025-09-07T03:00:00:Z","depth":0,"parameterNumber":3,"parameterNumberName":"V-component_of_WINDS"},"data":[0,0,0,0,0,0,0,0,0,0,0,0,0,0,0,0,0,0,0,0,0,0,0,0,0,0,0,0,0,0,0,0,0,0,0,0,0,0,0,0,0,0,0,0,0,0,0,0,0,0,0,0,0,0,0,0,0,0,-3.9991,-3.9992,0,-4.0009,-4.0009,-4.0009,-4.0013,-4.0013,-4.0013,-4.0013,-4.0027,-4.0027,-4.0028,0,0,0,0,0,0,0,0,0,0,0,0,0,-3.9959,-3.9959,-3.9991,-3.9992,-3.9992,-4.0009,-4.0009,-4.0009,-4.0013,-4.0013,-4.0013,-4.0013,-4.0027,-4.0027,-4.0028,0,0,0,0,0,0,0,0,0,0,0,0,0,-3.9974,-3.996,-3.9991,-3.9996,-3.9996,-4.0009,-4.0009,-4.0009,-4.0013,-4.0013,-4.0013,-4.0013,-4.0027,-4.0027,-4.0028,-4.0036,0,0,-4.003,-4.0031,0,0,0,0,0,0,0,0,-3.9973,-3.9975,-3.9995,-3.9996,-3.9996,-4.0009,-4.0003,-4.0018,-4.0013,-4.0007,-4.0013,-4.0013,-4.0021,-4.0022,-4.0026,-4.0037,-4.0037,-4.003,-4.0031,-4.0031,-4.0031,0,0,0,0,0,0,0,-3.9972,-3.9975,-3.9998,-3.9995,-3.9996,-3.9996,-3.9998,-4.0006,-4.0014,-4.0007,-4.0008,-4.001,-4.0021,-4.0025,-4.0026,-4.0038,-4.003,-4.0031,-4.0031,-4.0032,-4.0058,-4.0059,0,0,0,0,0,0,-3.9971,-3.9974,-3.9998,-3.9999,-3.9984,-3.9997,-3.9999,-4.0005,-4.0014,-4.0016,-4.001,-4.001,-4.0024,-4.0025,-4.0026,-4.0038,-4.0031,-4.0032,-4.0032,-4.0058,-4.0058,-4.0059,0,0,0,0,0,0,-3.997,-3.9973,-3.9997,-3.9986,-3.9989,-3.9998,-4.0004,-4.0005,-4.0009,-4.0016,-4.0018,-4.0012,-4.0024,-4.0025,-4.0034,-4.0038,-4.0032,-4.0033,-4.0058,-4.0058,-4.0059,-4.006,0,0,0,0,0,0,-3.9969,-3.9973,-3.9976,-3.9986,-3.999,-4.0005,-4.0004,-4.0006,-4.0011,-4.0011,-4.0019,-4.002,-4.0024,-4.0033,-4.0035,-4.0039,-4.0033,-4.0057,-4.0058,-4.0058,-4.006,-4.0061,-4.0061,0,0,0,0,0,-3.9968,-3.9974,-3.9976,-3.9979,-3.9995,-4.0005,-4.0007,-4.0012,-4.0011,-4.0015,-4.002,-4.002,-4.0038,-4.0034,-4.0036,-4.0041,-4.0057,-4.0058,-4.0058,-4.0059,-4.006,-4.0061,0,0,0,0,0,0,-3.9962,-3.9976,-3.9978,-3.9988,-3.9996,-4.0006,-4.001,-4.0013,-4.002,-4.0019,-4.0024,-4.0026,-4.0035,-4.0039,-4.0034,-4.005,-4.0047,-4.0048,-4.0047,-4.0048,-4.0049,-4.0048,-4.0034,0,0,0,0,0,-3.9963,-3.9971,-3.9982,-3.999,-3.9994,-4.0002,-4.0006,-4.001,-4.0017,-4.002,-4.0026,-4.0032,-4.004,-4.0044,-4.0051,-4.006,-4.0063,-4.0065,-4.0065,-4.0066,-4.0067,-4.0074,-4.0075,-4.0061,-4.0061,-4.0061,0,0,-3.9962,-3.9971,-3.9976,-3.9989,-3.9995,-4.0004,-4.0004,-4.0012,-4.0019,-4.0021,-4.0031,-4.0035,-4.0043,-4.0053,-4.0057,-4.0056,-4.0071,-4.0067,-4.0067,-4.0068,-4.0074,-4.0076,-4.0077,-4.0061,-4.0061,-4.0061,0,0,-3.9967,-3.9974,-3.9982,-3.999,-4.0,-4.0006,-4.0008,-4.0018,-4.0022,-4.0032,-4.0035,-4.0042,-4.0053,-4.006,-4.0064,-4.0074,-4.0075,-4.0076,-4.0079,-4.0086,-4.0087,-4.0088,-4.0092,-4.0094,-4.0076,-4.0076,-4.0076,0,-3.9965,-3.9979,-3.9986,-3.9995,-4.0001,-4.0006,-4.0015,-4.0021,-4.0032,-4.0036,-4.0035,-4.0052,-4.0057,-4.0069,-4.0072,-4.0075,-4.0078,-4.0075,-4.0087,-4.0088,-4.0089,-4.0093,-4.0094,-4.0077,-4.0076,-4.0076,-4.0076,0,-3.9977,-3.9986,-3.9992,-4.0005,-4.0012,-4.0021,-4.0029,-4.0035,-4.0038,-4.0044,-4.0055,-4.0062,-4.0071,-4.0074,-4.0076,-4.0087,-4.0086,-4.0086,-4.0083,-4.009,-4.0094,-4.0096,-4.0077,-4.0077,-4.0077,-4.0077,0,0,-3.9976,-3.9996,-3.9998,-4.0005,-4.0018,-4.0025,-4.0035,-4.0046,-4.0051,-4.0059,-4.0068,-4.0079,-4.0079,-4.0085,-4.0088,-4.0094,-4.0102,-4.0093,-4.0093,-4.0095,-4.0116,-4.0117,-4.0119,-4.0103,-4.0104,-4.0104,-4.0116,0,-3.9983,-4.0001,-4.0009,-4.0024,-4.0033,-4.0039,-4.0047,-4.0056,-4.0062,-4.0071,-4.0077,-4.0085,-4.0084,-4.0088,-4.0094,-4.01,-4.0107,-4.0099,-4.0111,-4.0111,-4.0109,-4.0121,-4.0121,-4.0132,-4.0117,-4.0118,-4.0118,0,-3.9992,-4.0004,-4.002,-4.0034,-4.0039,-4.0046,-4.0058,-4.0066,-4.0076,-4.008,-4.0088,-4.0091,-4.0101,-4.0098,-4.0113,-4.0107,-4.0113,-4.0116,-4.0117,-4.0118,-4.0115,-4.0123,-4.0135,-4.0137,-4.012,-4.012,-4.012,0,-3.9992,-4.0011,-4.0024,-4.0029,-4.0046,-4.0051,-4.0058,-4.0069,-4.0076,-4.0086,-4.009,-4.0101,-4.0106,-4.0114,-4.012,-4.0117,-4.0134,-4.0131,-4.0138,-4.0138,-4.0141,-4.0141,-4.0155,-4.0143,-4.0143,-4.0143,-4.0143,0,-3.9999,-4.0008,-4.0024,-4.0032,-4.0043,-4.0052,-4.0063,-4.007,-4.008,-4.0089,-4.0094,-4.0102,-4.011,-4.0119,-4.0124,-4.0136,-4.0138,-4.0142,-4.0143,-4.0141,-4.0141,-4.0145,-4.0145,-4.0144,-4.0144,-4.0144,-4.0143,0,-4.0,-4.001,-4.0025,-4.0041,-4.0045,-4.0053,-4.0066,-4.0074,-4.0081,-4.0093,-4.0096,-4.0106,-4.0118,-4.0125,-4.0139,-4.0142,-4.0155,-4.0156,-4.0152,-4.0153,-4.016,-4.0159,-4.0177,-4.018,-4.0166,-4.0166,-4.0166,0,-4.0003,-4.0012,-4.0029,-4.0037,-4.0045,-4.0056,-4.0064,-4.0074,-4.0082,-4.0096,-4.0102,-4.0114,-4.0125,-4.0142,-4.0151,-4.0162,-4.0163,-4.0169,-4.0164,-4.0164,-4.0164,-4.0164,-4.0165,-4.0169,-4.0169,-4.0169,-4.0169,0,-4.0009,-4.0015,-4.0027,-4.0042,-4.0052,-4.0063,-4.0074,-4.008,-4.0091,-4.01,-4.0113,-4.0121,-4.0137,-4.0149,-4.0162,-4.0168,-4.0171,-4.0171,-4.0173,-4.0172,-4.017,-4.0172,-4.0155,-4.017,-4.017,-4.017,-4.017,-4.017,-4.0012,-4.0021,-4.0036,-4.0049,-4.006,-4.0071,-4.008,-4.0089,-4.0101,-4.0116,-4.0121,-4.0134,-4.0146,-4.0163,-4.017,-4.018,-4.018,-4.0183,-4.0183,-4.0184,-4.0185,-4.0168,-4.0182,-4.0182,-4.0182,-4.0182,-4.0182,0,-4.0019,-4.003,-4.0043,-4.006,-4.0071,-4.0075,-4.0089,-4.0097,-4.011,-4.0122,-4.0133,-4.0148,-4.0161,-4.0171,-4.0184,-4.0191,-4.0193,-4.0194,-4.0194,-4.0195,-4.0184,-4.0182,-4.0192,-4.0192,-4.0192,-4.0192,-4.0192,-4.0192,-4.0024,-4.004,-4.0047,-4.0068,-4.0078,-4.0094,-4.0101,-4.0112,-4.0121,-4.014,-4.0151,-4.0158,-4.017,-4.0184,-4.0196,-4.0198,-4.0203,-4.0204,-4.0207,-4.0197,-4.0196,-4.0195,-4.0192,-4.0205,-4.0205,-4.0218,-4.0218,-4.0218]}]]